[[[{"header":{"parameterUnit":"kt","parameterCategory":2,"dx":1,"dy":1,"la1":30.253999710083008,"la2":30.299108505249023,"lo1":-89.0895004272461,"lo2":-89.04439544677734,"nx":28,"ny":28,"refTime":"2022-09-20T21:00:00:Z","depth":0,"parameterNumber":1,"parameterNumberName":"U-component_of_WINDS"},"data":[-1.076,-1.0759,-1.0741,-1.073,-1.0712,-1.0702,-1.0692,-1.0677,-1.0661,-1.0646,-1.0634,-1.0615,-1.059,-1.0571,-1.0556,-1.0548,-1.0543,-1.0556,-1.0544,-1.0503,-1.0497,-1.049,-1.049,-1.0555,-1.0555,-1.0588,-1.0588,-1.0588,-1.0733,-1.0715,-1.0704,-1.0681,-1.0672,-1.0649,-1.0628,-1.0622,-1.0613,-1.0593,-1.058,-1.0564,-1.055,-1.052,-1.0503,-1.0501,-1.0488,-1.0497,-1.0497,-1.0494,-1.045,-1.045,-1.0508,-1.0508,-1.0508,-1.0508,-1.0508,-1.0508,-1.0677,-1.0677,-1.0653,-1.0641,-1.0624,-1.0609,-1.0605,-1.0582,-1.0571,-1.0551,-1.0531,-1.052,-1.0495,-1.0465,-1.045,-1.044,-1.0427,-1.043,-1.0431,-1.0433,-1.0437,-1.0392,-1.0436,-1.0436,-1.0436,-1.0436,-1.0435,0,-1.0631,-1.0616,-1.0604,-1.0588,-1.0578,-1.0562,-1.0545,-1.0542,-1.0503,-1.0495,-1.0482,-1.0472,-1.045,-1.0435,-1.0414,-1.0397,-1.0372,-1.0367,-1.0369,-1.0379,-1.0391,-1.0384,-1.0314,-1.0366,-1.0365,-1.0365,-1.0364,-1.0364,-1.0574,-1.0576,-1.0541,-1.0536,-1.0522,-1.0513,-1.0504,-1.0469,-1.046,-1.0434,-1.0435,-1.042,-1.0406,-1.0387,-1.0359,-1.0342,-1.0329,-1.0351,-1.0327,-1.0336,-1.0329,-1.033,-1.033,-1.0357,-1.0358,-1.0358,-1.0359,0,-1.0544,-1.0514,-1.051,-1.0476,-1.0467,-1.047,-1.044,-1.0438,-1.0415,-1.0409,-1.0406,-1.037,-1.0357,-1.0325,-1.0304,-1.0287,-1.0292,-1.028,-1.03,-1.0296,-1.0312,-1.0311,-1.037,-1.0375,-1.0307,-1.0308,-1.0308,0,-1.0483,-1.0487,-1.0442,-1.0441,-1.0444,-1.0409,-1.0412,-1.0393,-1.0371,-1.0366,-1.0332,-1.0328,-1.0287,-1.0278,-1.0253,-1.0251,-1.0247,-1.0234,-1.0227,-1.0237,-1.0239,-1.0231,-1.0228,-1.0213,-1.0212,-1.0212,-1.0212,0,-1.0439,-1.0419,-1.0418,-1.0408,-1.0371,-1.0372,-1.0356,-1.0332,-1.0323,-1.0306,-1.03,-1.0282,-1.0273,-1.026,-1.0229,-1.0213,-1.0225,-1.0197,-1.0212,-1.0213,-1.0216,-1.0216,-1.0277,-1.0212,-1.0211,-1.0211,-1.0211,0,-1.0385,-1.037,-1.0373,-1.0341,-1.0337,-1.0337,-1.0318,-1.031,-1.0286,-1.0271,-1.0257,-1.023,-1.0226,-1.0201,-1.0194,-1.0182,-1.0175,-1.0162,-1.0162,-1.016,-1.0133,-1.0171,-1.0232,-1.0237,-1.0158,-1.0157,-1.0157,0,-1.0343,-1.0338,-1.0308,-1.0312,-1.0305,-1.0267,-1.0266,-1.0246,-1.0225,-1.0216,-1.0193,-1.0183,-1.0157,-1.0149,-1.015,-1.0125,-1.014,-1.0122,-1.0109,-1.0109,-1.0116,-1.0172,-1.0189,-1.0222,-1.0151,-1.0151,-1.0152,0,-1.0306,-1.0261,-1.0264,-1.0251,-1.022,-1.0214,-1.0212,-1.0194,-1.019,-1.0171,-1.0169,-1.0153,-1.0133,-1.0121,-1.0097,-1.0099,-1.0129,-1.0077,-1.0076,-1.0088,-1.0145,-1.0161,-1.0167,-1.0112,-1.0113,-1.0113,-1.0147,0,-1.0232,-1.0225,-1.0232,-1.0205,-1.0196,-1.0196,-1.0162,-1.0156,-1.0135,-1.0113,-1.0108,-1.0083,-1.0064,-1.0062,-1.004,-1.0056,-1.0048,-1.0027,-1.0,-1.0037,-1.0047,-1.0051,-0.9988,-0.9987,-0.9986,-0.9985,0,0,-1.0198,-1.0189,-1.0155,-1.0152,-1.0142,-1.0102,-1.0106,-1.0091,-1.0062,-1.0056,-1.004,-1.0015,-0.9995,-0.9993,-1.0002,-0.9994,-0.9994,-0.9982,-1.002,-1.0024,-1.0027,-1.0039,-1.0044,-0.9984,-0.9983,-0.9983,-0.9983,0,-1.0164,-1.0146,-1.015,-1.0133,-1.0107,-1.0084,-1.0085,-1.0052,-1.0038,-1.0033,-1.0,-0.9993,-0.9974,-0.9957,-0.9946,-0.9982,-0.9957,-0.9979,-1.001,-1.0012,-1.0018,-1.0022,-1.0034,-1.0039,-0.9981,-0.9981,-0.9981,0,-1.0122,-1.0098,-1.0096,-1.0071,-1.0054,-1.0048,-1.0011,-1.0006,-1.0001,-0.9957,-0.9953,-0.9934,-0.9908,-0.9911,-0.9911,-0.9897,-0.9925,-0.991,-0.9914,-0.9913,-0.9914,-0.992,-0.9926,-0.9853,-0.9852,-0.9852,0,0,-1.0097,-1.0091,-1.0054,-1.0061,-1.0053,-1.0018,-1.0011,-0.9988,-0.9967,-0.9958,-0.9933,-0.9913,-0.9901,-0.9894,-0.9881,-0.9889,-0.988,-0.9895,-0.9901,-0.9906,-0.9908,-0.9911,-0.9917,-0.9851,-0.9851,-0.9851,0,0,-1.0085,-1.0042,-1.0024,-1.0029,-1.001,-0.9973,-0.9979,-0.9955,-0.994,-0.9936,-0.9897,-0.989,-0.9892,-0.9874,-0.9863,-0.9871,-0.9844,-0.9846,-0.9882,-0.9889,-0.9895,-0.9899,-0.9821,0,0,0,0,0,-1.0032,-1.0047,-1.0031,-1.0027,-0.9995,-0.9982,-0.9978,-0.9946,-0.9928,-0.9934,-0.9909,-0.9883,-0.986,-0.9849,-0.9845,-0.9858,-0.9836,-0.9839,-0.9841,-0.9889,-0.9897,-0.9903,0,0,0,0,0,0,-1.003,-1.0025,-1.0031,-0.9996,-0.9988,-0.9981,-0.9944,-0.9936,-0.9927,-0.9922,-0.9888,-0.9882,-0.9854,-0.9849,-0.9846,-0.9859,-0.9822,-0.9837,-0.984,-0.9842,-0.9891,-0.9898,-0.9903,0,0,0,0,0,-1.0028,-1.0024,-0.9981,-0.9995,-0.9989,-0.995,-0.9943,-0.9936,-0.9929,-0.9891,-0.9883,-0.9906,-0.9855,-0.985,-0.9847,-0.9861,-0.9824,-0.9823,-0.9839,-0.9841,-0.9842,-0.9895,0,0,0,0,0,0,-1.0027,-1.0017,-0.9979,-0.9976,-0.9987,-0.995,-0.9943,-0.9937,-0.9897,-0.989,-0.9906,-0.9903,-0.9856,-0.9852,-0.9849,-0.9864,-0.9826,-0.9825,-0.9824,-0.984,-0.9842,-0.9843,0,0,0,0,0,0,-1.0019,-1.0015,-0.9977,-0.9969,-0.9964,-0.995,-0.9944,-0.9937,-0.9897,-0.9914,-0.991,-0.9905,-0.9861,-0.9854,-0.9851,-0.9841,-0.9827,-0.9826,-0.9825,-0.9825,-0.9841,-0.9842,0,0,0,0,0,0,-1.0017,-1.0013,-0.9969,-0.9966,-0.9962,-0.9923,-0.9943,-0.9911,-0.9891,-0.9917,-0.9888,-0.9886,-0.9864,-0.986,-0.9852,-0.9844,-0.9841,-0.9827,-0.9826,-0.9826,-0.9826,0,0,0,0,0,0,0,-1.0015,-1.0048,-0.9998,-0.9963,-0.996,-0.9946,-0.9945,-0.9944,-0.989,-0.9889,-0.9888,-0.9887,-0.9833,-0.9832,-0.9831,-0.9846,0,0,-0.9827,-0.9827,0,0,0,0,0,0,0,0,-1.0049,-1.0048,-0.9998,-0.9997,-0.9997,-0.9946,-0.9945,-0.9944,-0.989,-0.9889,-0.9888,-0.9887,-0.9833,-0.9832,-0.9831,0,0,0,0,0,0,0,0,0,0,0,0,0,0,0,-0.9998,-0.9997,0,-0.9946,-0.9945,-0.9945,-0.989,-0.9889,-0.9888,-0.9888,-0.9833,-0.9832,-0.9831,0,0,0,0,0,0,0,0,0,0,0,0,0,0,0,0,0,0,0,0,0,0,0,0,0,0,0,0,0,0,0,0,0,0,0,0,0,0,0,0,0,0,0,0,0,0,0,0,0,0,0,0,0,0,0,0,0,0,0,0,0,0,0,0,0,0,0,0,0]}],[{"header":{"parameterUnit":"kt","parameterCategory":2,"dx":1,"dy":1,"la1":30.253999710083008,"la2":30.299108505249023,"lo1":-89.0895004272461,"lo2":-89.04439544677734,"nx":28,"ny":28,"refTime":"2022-09-20T21:00:00:Z","depth":0,"parameterNumber":2,"parameterNumberName":"V-component_of_WINDS"},"data":[4.7105,4.7144,4.7133,4.7173,4.7169,4.7194,4.72,4.7205,4.7206,4.7235,4.7249,4.7241,4.7237,4.7251,4.7266,4.7261,4.7268,4.7292,4.7283,4.719,4.7176,4.7163,4.7153,4.7294,4.7294,4.738,4.7381,4.7382,4.704,4.7037,4.7054,4.7063,4.7078,4.7049,4.7054,4.7068,4.7091,4.7093,4.7106,4.7129,4.7147,4.7134,4.7148,4.7167,4.7153,4.7171,4.7169,4.7169,4.707,4.7059,4.7182,4.7182,4.7182,4.7182,4.7182,4.7182,4.6918,4.6943,4.6941,4.6959,4.696,4.6966,4.6987,4.6976,4.6993,4.7006,4.6988,4.7013,4.7012,4.7022,4.7023,4.7042,4.702,4.7035,4.7039,4.7043,4.705,4.6927,4.7044,4.7044,4.7043,4.7043,4.7043,0,4.6825,4.6814,4.6829,4.6841,4.6854,4.6862,4.6867,4.688,4.6849,4.6864,4.6884,4.6894,4.6913,4.693,4.694,4.6937,4.6907,4.6902,4.6913,4.6922,4.693,4.6926,4.6764,4.6899,4.6897,4.6896,4.6896,4.6895,4.6702,4.6731,4.6722,4.6735,4.6734,4.6755,4.6764,4.6735,4.6746,4.6748,4.677,4.6788,4.6799,4.6834,4.6819,4.6833,4.6818,4.6871,4.682,4.6828,4.6819,4.6817,4.682,4.6881,4.6883,4.6885,4.6886,0,4.6633,4.6612,4.6653,4.6641,4.6639,4.6671,4.666,4.6683,4.6669,4.6698,4.6703,4.6681,4.6701,4.6677,4.6695,4.6682,4.6736,4.6721,4.6736,4.6732,4.6777,4.6773,4.6926,4.6945,4.6799,4.68,4.6801,0,4.6519,4.6558,4.6524,4.6549,4.6592,4.6561,4.6604,4.6596,4.6593,4.6616,4.6577,4.6599,4.6565,4.6584,4.6565,4.6604,4.6607,4.66,4.6594,4.6603,4.6604,4.6608,4.6601,4.658,4.6579,4.6579,4.6578,0,4.6414,4.6441,4.6481,4.6484,4.6474,4.6493,4.649,4.6486,4.6496,4.6504,4.6509,4.6521,4.6528,4.6538,4.6513,4.6479,4.656,4.6508,4.6552,4.6553,4.657,4.6569,4.6712,4.6577,4.6577,4.6577,4.6576,0,4.6318,4.6326,4.6388,4.6378,4.6386,4.6413,4.6422,4.6439,4.6438,4.6427,4.6433,4.6404,4.6436,4.6386,4.643,4.6393,4.6402,4.6397,4.64,4.64,4.6345,4.6429,4.6567,4.658,4.6402,4.6401,4.64,0,4.6203,4.6259,4.6231,4.629,4.6312,4.6267,4.6296,4.6295,4.6283,4.63,4.6287,4.6306,4.6264,4.6267,4.6292,4.6278,4.6326,4.6271,4.6296,4.6297,4.6297,4.6425,4.6451,4.6539,4.6381,4.6383,4.6384,0,4.6111,4.6097,4.611,4.6111,4.6105,4.6123,4.6156,4.6167,4.618,4.6184,4.621,4.6237,4.6206,4.6211,4.6188,4.6215,4.6293,4.6178,4.6177,4.6199,4.6369,4.6394,4.6409,4.6272,4.6274,4.6276,4.6369,0,4.5971,4.5995,4.6027,4.603,4.604,4.6075,4.6048,4.6062,4.6039,4.6025,4.6064,4.6056,4.6068,4.6078,4.6055,4.6124,4.6109,4.6076,4.6025,4.6109,4.6139,4.6151,4.5982,4.598,4.5979,4.5978,0,0,4.5866,4.59,4.5868,4.5898,4.5904,4.5855,4.5895,4.5895,4.5897,4.5902,4.5874,4.591,4.5905,4.5954,4.5978,4.5983,4.5993,4.5964,4.6069,4.6079,4.6089,4.6121,4.6135,4.5975,4.5975,4.5974,4.5974,0,4.5809,4.5805,4.5844,4.5843,4.5839,4.5822,4.5832,4.582,4.5812,4.5849,4.5808,4.5827,4.5857,4.5856,4.586,4.5958,4.5925,4.5963,4.6025,4.6056,4.6068,4.6079,4.6113,4.6126,4.5971,4.5971,4.5971,0,4.5713,4.5704,4.572,4.5731,4.5728,4.5752,4.5692,4.5719,4.5736,4.568,4.5717,4.5709,4.5706,4.5756,4.5778,4.5752,4.5865,4.5824,4.5832,4.5834,4.5862,4.5877,4.589,4.5718,4.5718,4.5717,0,0,4.5667,4.5689,4.5669,4.5717,4.5718,4.5692,4.5701,4.5678,4.5676,4.5676,4.5664,4.5664,4.568,4.5692,4.5706,4.5765,4.5761,4.5794,4.5806,4.5816,4.5823,4.5854,4.5868,4.5714,4.5714,4.5714,0,0,4.5645,4.5624,4.56,4.5652,4.5652,4.5635,4.5665,4.5635,4.5645,4.5637,4.56,4.5598,4.5644,4.5637,4.5602,4.5687,4.5637,4.5645,4.5689,4.5704,4.5716,4.5716,4.5539,0,0,0,0,0,4.5571,4.5626,4.5605,4.5609,4.5622,4.5647,4.5648,4.5618,4.5584,4.5608,4.5594,4.5558,4.5611,4.5578,4.5583,4.5623,4.5677,4.5683,4.5689,4.576,4.5776,4.5789,0,0,0,0,0,0,4.5573,4.5579,4.5603,4.5589,4.5592,4.5644,4.5579,4.5573,4.558,4.5573,4.5562,4.5558,4.5532,4.5574,4.5579,4.5617,4.5537,4.5679,4.5685,4.569,4.5766,4.5778,4.5789,0,0,0,0,0,4.5574,4.5578,4.5607,4.5588,4.559,4.5564,4.5577,4.5571,4.5576,4.5553,4.5548,4.5553,4.5534,4.5536,4.5577,4.5615,4.5533,4.5535,4.5683,4.5687,4.5691,4.5772,0,0,0,0,0,0,4.5575,4.5573,4.5607,4.5606,4.5565,4.556,4.5558,4.557,4.5555,4.5551,4.5542,4.5536,4.5536,4.5538,4.5539,4.5617,4.553,4.5532,4.5534,4.5686,4.569,4.5693,0,0,0,0,0,0,4.557,4.5573,4.5606,4.5579,4.5575,4.5557,4.5556,4.5585,4.5556,4.5545,4.554,4.554,4.5533,4.5539,4.554,4.5587,4.5528,4.553,4.5531,4.5532,4.5689,4.5692,0,0,0,0,0,0,4.5571,4.5573,4.5578,4.5576,4.5572,4.5565,4.5582,4.5597,4.5532,4.5546,4.5526,4.5523,4.5536,4.5536,4.5541,4.5588,4.5587,4.5528,4.5529,4.553,4.5531,0,0,0,0,0,0,0,4.5571,4.5563,4.5609,4.5573,4.557,4.5602,4.5602,4.5602,4.5532,4.5529,4.5526,4.5524,4.5517,4.5519,4.5521,4.5588,0,0,4.5528,4.5529,0,0,0,0,0,0,0,0,4.5562,4.5563,4.5609,4.5609,4.5609,4.5602,4.5602,4.5602,4.5531,4.5529,4.5527,4.5525,4.5518,4.5519,4.5521,0,0,0,0,0,0,0,0,0,0,0,0,0,0,0,4.5609,4.5609,0,4.5602,4.5602,4.5602,4.5531,4.5529,4.5527,4.5526,4.5518,4.5519,4.5521,0,0,0,0,0,0,0,0,0,0,0,0,0,0,0,0,0,0,0,0,0,0,0,0,0,0,0,0,0,0,0,0,0,0,0,0,0,0,0,0,0,0,0,0,0,0,0,0,0,0,0,0,0,0,0,0,0,0,0,0,0,0,0,0,0,0,0,0,0]}]]]